This demonstration page uses our WeatherBlox Daily Observations layout. Learn more.

40.92945, -100.16068

Hourly Observations for December 17, 2016

Temp ( °F °C ) Dew Point ( °F °C ) Humidity (%) Winds ( mph kmh ) Pressure ( in mb ) Visibility ( mi km ) Precip ( " mm )
12:15 am 00:15 Cloudy 11 -11.8 4 -15.6 74 74 N 24 39 30 1016 10 16.0934 N/A
12:35 am 00:35 Cloudy 10 -12.1 3 -16 73 73 N 23 37 30 1016 10 16.0934 N/A
12:55 am 00:55 Cloudy 10 -12.5 3 -16.1 75 75 NNW 18 30 30.06 1018 10 16.0934 N/A
1:15 am 01:15 Cloudy 9 -12.7 2 -16.6 73 73 N 17 28 30.06 1018 10 16.0934 N/A
1:35 am 01:35 Cloudy 9 -13 1 -17 72 72 NNW 20 31 30.09 1019 10 16.0934 N/A
1:55 am 01:55 Cloudy 8 -13.5 0 -17.8 70 70 N 26 43 30.06 1018 10 16.0934 N/A
2:15 am 02:15 Cloudy 7 -13.8 -1 -18.4 68 68 N 20 31 30.09 1019 10 16.0934 N/A
2:35 am 02:35 Cloudy 6 -14.3 -2 -18.8 69 69 NNW 25 41 30.09 1019 10 16.0934 N/A
2:55 am 02:55 Cloudy 6 -14.7 -2 -19.1 69 69 NNW 24 39 30.15 1021 10 16.0934 N/A
3:15 am 03:15 Cloudy 5 -15.1 -3 -19.6 69 69 N 25 41 30.12 1020 10 16.0934 N/A
3:35 am 03:35 Cloudy 4 -15.3 -4 -20 68 68 N 18 30 30.12 1020 10 16.0934 N/A
3:55 am 03:55 Cloudy 5 -15.2 -4 -19.8 68 68 NNW 21 33 30.18 1022 10 16.0934 N/A
4:15 am 04:15 Cloudy 4 -15.6 -5 -20.3 67 67 N 24 39 30.15 1021 10 16.0934 N/A
4:35 am 04:35 Cloudy 4 -15.8 -5 -20.5 67 67 N 26 43 30.15 1021 10 16.0934 N/A
4:55 am 04:55 Cloudy 3 -16 -5 -20.7 67 67 N 24 39 30.15 1021 10 16.0934 N/A
5:15 am 05:15 Cloudy 3 -16.1 -5 -20.8 67 67 N 25 41 30.18 1022 10 16.0934 N/A
5:35 am 05:35 Cloudy 3 -16.1 -6 -21 66 66 N 20 31 30.18 1022 10 16.0934 N/A
5:55 am 05:55 Cloudy 3 -16.2 -6 -21 67 67 NNW 24 39 30.18 1022 10 16.0934 N/A
6:15 am 06:15 Windy with Snow Likely 2 -16.5 -7 -21.5 66 66 NNW 23 37 30.27 1025 10 16.0934 N/A
6:35 am 06:35 Windy with Snow Likely 2 -16.6 -6 -21.3 67 67 N 23 37 30.27 1025 10 16.0934 N/A
6:55 am 06:55 Windy with Snow Likely 2 -16.9 -7 -21.4 68 68 NNW 20 31 30.3 1026 4 6.43736 N/A
7:15 am 07:15 Windy with Snow Likely 1 -17.2 -7 -21.4 70 70 N 22 35 30.33 1027 2 3.21868 N/A
7:35 am 07:35 Cloudy with Light Snow 1 -17.2 -5 -20.8 74 74 NNW 18 30 30.33 1027 3 4.82802 N/A
7:55 am 07:55 Windy with Snow Likely 0 -17.6 -6 -21.1 74 74 NNW 22 35 30.33 1027 1.5 2.41401 N/A
8:15 am 08:15 Windy with Snow Likely 0 -17.7 -7 -21.5 72 72 N 20 31 30.33 1027 1.5 2.41401 N/A
8:35 am 08:35 Windy with Snow Likely 0 -17.7 -7 -21.6 72 72 N 21 33 30.33 1027 1.75 2.816345 N/A
8:55 am 08:55 Windy with Snow Likely 0 -17.6 -6 -21.3 73 73 NNW 22 35 30.33 1027 1.5 2.41401 N/A
9:15 am 09:15 Windy with Snow Likely 1 -17.5 -6 -21.3 72 72 N 20 31 30.33 1027 3 4.82802 N/A
9:35 am 09:35 Windy with Snow Likely 1 -17.5 -7 -21.4 72 72 N 22 35 30.33 1027 2.5 4.02335 N/A
9:55 am 09:55 Cloudy 1 -17.3 -7 -21.9 68 68 N 16 26 30.36 1028 10 16.0934 N/A
10:15 am 10:15 Cloudy 1 -17.2 -8 -22 66 66 NNW 18 30 30.39 1029 10 16.0934 N/A
10:35 am 10:35 Cloudy 1 -17.2 -8 -22.1 66 66 NNW 22 35 30.36 1028 10 16.0934 N/A
10:55 am 10:55 Cloudy 1 -17 -8 -22 65 65 NNW 18 30 30.42 1030 10 16.0934 N/A
11:15 am 11:15 Cloudy 2 -16.7 -7 -21.9 64 64 N 20 31 30.42 1030 10 16.0934 N/A
11:35 am 11:35 Cloudy 2 -16.7 -8 -22 64 64 N 23 37 30.39 1029 10 16.0934 N/A
11:55 am 11:55 Mostly Cloudy 2 -16.5 -7 -21.8 64 64 N 23 37 30.36 1028 10 16.0934 N/A
12:15 pm 12:15 Sunny 3 -16.3 -7 -21.8 63 63 N 18 30 30.39 1029 10 16.0934 N/A
12:35 pm 12:35 Sunny 3 -16.3 -7 -21.7 63 63 NNW 21 33 30.39 1029 10 16.0934 N/A
12:55 pm 12:55 Sunny 3 -16.3 -8 -22 62 62 N 22 35 30.39 1029 10 16.0934 N/A
1:15 pm 13:15 Sunny 3 -16.3 -8 -22.1 61 61 N 18 30 30.39 1029 10 16.0934 N/A
1:35 pm 13:35 Sunny 3 -16.3 -8 -22.2 61 61 N 21 33 30.39 1029 10 16.0934 N/A
1:55 pm 13:55 Sunny 3 -16 -7 -21.7 62 62 N 21 33 30.36 1028 10 16.0934 N/A
2:15 pm 14:15 Sunny 3 -16.1 -8 -22 61 61 N 21 33 30.39 1029 10 16.0934 N/A
2:35 pm 14:35 Sunny 3 -16 -8 -22 60 60 N 20 31 30.39 1029 10 16.0934 N/A
2:55 pm 14:55 Sunny 3 -16 -8 -22.1 60 60 N 18 30 30.39 1029 10 16.0934 N/A
3:15 pm 15:15 Sunny 4 -15.8 -7 -21.7 61 61 NNW 20 31 30.39 1029 10 16.0934 N/A
3:35 pm 15:35 Sunny 3 -16 -8 -22 60 60 NNW 16 26 30.42 1030 10 16.0934 N/A
3:55 pm 15:55 Sunny 3 -16.1 -8 -22.1 60 60 NNW 18 30 30.39 1029 10 16.0934 N/A
4:15 pm 16:15 Sunny 3 -16 -8 -22.1 60 60 N 16 26 30.42 1030 10 16.0934 N/A
4:35 pm 16:35 Sunny 3 -16 -8 -22.4 58 58 NNW 16 26 30.45 1031 10 16.0934 N/A
4:55 pm 16:55 Sunny 2 -16.5 -9 -22.6 60 60 NNW 13 20 30.45 1031 10 16.0934 N/A
5:15 pm 17:15 Clear 1 -17 -9 -23 60 60 NNW 10 17 30.45 1031 10 16.0934 N/A
5:35 pm 17:35 Clear 0 -18 -10 -23.1 65 65 NNW 9 15 30.5 1033 10 16.0934 N/A
5:55 pm 17:55 Clear -4 -20.2 -12 -24.6 68 68 NW 7 11 30.53 1034 10 16.0934 N/A
6:15 pm 18:15 Clear -5 -20.7 -13 -25.1 68 68 NW 7 11 30.53 1034 10 16.0934 N/A
6:35 pm 18:35 Clear -5 -20.6 -12 -24.6 70 70 NNW 9 15 30.53 1034 10 16.0934 N/A
6:55 pm 18:55 Clear -4 -20.1 -12 -24.5 68 68 NNW 9 15 30.56 1035 10 16.0934 N/A
7:15 pm 19:15 Clear -4 -20.2 -12 -24.7 67 67 NNW 8 13 30.56 1035 10 16.0934 N/A
7:35 pm 19:35 Clear -5 -20.7 -13 -25.1 68 68 NNW 7 11 30.59 1036 10 16.0934 N/A
7:55 pm 19:55 Clear -7 -21.8 -15 -26 69 69 NNW 9 15 30.62 1037 10 16.0934 N/A
8:15 pm 20:15 Clear -9 -22.6 -16 -26.7 69 69 NNW 6 9 30.62 1037 10 16.0934 N/A
8:35 pm 20:35 Clear -9 -22.7 -16 -26.9 69 69 NW 7 11 30.62 1037 10 16.0934 N/A
8:55 pm 20:55 Clear -11 -23.8 -18 -28 68 68 NW 3 6 30.62 1037 10 16.0934 N/A
9:15 pm 21:15 Clear -11 -24 -18 -27.8 71 71 W 6 9 30.62 1037 10 16.0934 N/A
9:35 pm 21:35 Clear -11 -23.8 -17 -27.4 72 72 W 6 9 30.62 1037 10 16.0934 N/A
9:55 pm 21:55 Clear -11 -23.8 -18 -27.7 70 70 W 8 13 30.65 1038 10 16.0934 N/A
10:15 pm 22:15 Clear -10 -23.4 -17 -27.1 72 72 W 7 11 30.65 1038 10 16.0934 N/A
10:35 pm 22:35 Clear -11 -24 -18 -27.6 72 72 W 8 13 30.68 1039 10 16.0934 N/A
10:55 pm 22:55 Clear -11 -24 -18 -27.7 72 72 W 7 11 30.68 1039 10 16.0934 N/A
11:15 pm 23:15 Clear -12 -24.6 -19 -28.1 73 73 W 6 9 30.68 1039 10 16.0934 N/A
11:35 pm 23:35 Clear -14 -25.8 -20 -29.1 74 74 NW 5 7 30.68 1039 10 16.0934 N/A
11:55 pm 23:55 Clear -14 -25.3 -20 -28.8 73 73 NW 5 7 30.68 1039 10 16.0934 N/A

Powered by AerisWeather